New Bedford, MA

1:44 PM EDT on April 30, 2017 (GMT -0400)
New Bedford Regional

Weather History for KEWB - January, 2012

Change the Weather History Date:

Thursday, January 19, 2012

  Actual Average Record
Temperature  
Mean Temperature 26 °F -  
Max Temperature 35 °F 34 °F 58 °F (1973)
Min Temperature 17 °F 20 °F -1 °F (1983)
Degree Days  
Heating Degree Days 39    
Moisture  
Dew Point 16 °F    
Average Humidity 63    
Maximum Humidity 92    
Minimum Humidity 42    
Precipitation  
Precipitation 0.14 in - - ()
Sea Level Pressure  
Sea Level Pressure 30.11 in    
Wind  
Wind Speed 6 mph (ENE)    
Max Wind Speed 17 mph    
Max Gust Speed 25 mph    
Visibility 8 miles    
Events Fog , Snow    
Averages and records for this station are not official NWS values.
T = Trace of Precipitation, MM = Missing Value Source: NWS Daily Summary

Daily Weather History Graph

Daily Weather History Graph

Search for Another Location

Airport or City:

Trip Planner

Search our weather history database for the weather conditions in past years. The results will help you decide how hot, cold, wet, or windy it might be!

Date:

Astronomy

Jan. 19, 2012 Rise Set
Actual Time 7:06 AM EST 4:42 PM EST
Civil Twilight 6:36 AM EST 5:13 PM EST
Nautical Twilight 6:02 AM EST 5:47 PM EST
Astronomical Twilight 5:29 AM EST 6:20 PM EST
Moon 3:40 AM EST (1/19) 1:10 PM EST (1/19)
Length of Visible Light 10h 36m
Length of Day
9h 35m
Waning Crescent, 16% of the Moon is Illuminated
Jan 19
Waning Crescent
Jan 23
New
Jan 30
First Quarter
Feb 7
Full
Feb 14
Last Quarter

Hourly Weather History & Observations

Time (EST) Temp. Windchill Dew Point Humidity Pressure Visibility Wind Dir Wind Speed Gust Speed Precip Events Conditions
12:53 AM 21.0 °F 16.2 °F 1.0 °F 42% 30.17 in 10.0 mi NNW 3.5 mph - N/A   Clear
1:53 AM 19.0 °F - 3.0 °F 50% 30.16 in 10.0 mi Calm Calm - N/A   Clear
2:53 AM 19.0 °F 12.3 °F 1.9 °F 47% 30.17 in 10.0 mi NNW 4.6 mph - N/A   Clear
3:53 AM 18.0 °F 12.7 °F -0.0 °F 45% 30.19 in 10.0 mi NNW 3.5 mph - N/A   Clear
4:53 AM 17.1 °F - 1.9 °F 52% 30.20 in 10.0 mi Calm Calm - N/A   Clear
5:53 AM 17.1 °F - 3.0 °F 54% 30.24 in 10.0 mi Calm Calm - N/A   Clear
6:53 AM 17.1 °F 8.7 °F 1.9 °F 52% 30.24 in 10.0 mi NNW 5.8 mph - N/A   Clear
7:53 AM 18.0 °F 8.7 °F 1.9 °F 50% 30.25 in 10.0 mi North 6.9 mph - N/A   Clear
8:53 AM 21.9 °F 15.7 °F 5.0 °F 48% 30.27 in 10.0 mi North 4.6 mph - N/A   Clear
9:53 AM 25.0 °F 18.1 °F 10.0 °F 53% 30.27 in 10.0 mi North 5.8 mph - N/A   Clear
10:53 AM 27.0 °F 21.6 °F 12.0 °F 53% 30.25 in 10.0 mi North 4.6 mph - N/A   Clear
11:53 AM 30.9 °F 25.2 °F 15.1 °F 52% 30.21 in 10.0 mi NNE 5.8 mph - N/A   Scattered Clouds
12:53 PM 30.9 °F 24.3 °F 16.0 °F 54% 30.19 in 10.0 mi NE 6.9 mph - N/A   Overcast
1:53 PM 33.1 °F 24.9 °F 16.0 °F 50% 30.15 in 10.0 mi NE 10.4 mph - N/A   Clear
2:53 PM 33.1 °F 25.5 °F 19.0 °F 56% 30.12 in 10.0 mi East 9.2 mph - N/A   Clear
3:53 PM 30.2 °F 24.3 °F 19.4 °F 64% 30.13 in 10.0 mi East 5.8 mph - N/A   Clear
4:53 PM 28.0 °F 20.8 °F 18.0 °F 66% 30.12 in 10.0 mi East 6.9 mph - N/A   Clear
5:53 PM 28.0 °F 22.8 °F 19.0 °F 69% 30.12 in 10.0 mi ESE 4.6 mph - N/A   Scattered Clouds
6:53 PM 27.0 °F - 19.9 °F 75% 30.10 in 10.0 mi Calm Calm - N/A   Scattered Clouds
7:53 PM 28.0 °F 22.8 °F 21.0 °F 75% 30.08 in 10.0 mi NE 4.6 mph - N/A   Overcast
8:53 PM 33.8 °F 27.0 °F 24.8 °F 70% 30.02 in 10.0 mi ESE 8.1 mph 18.4 mph N/A   Overcast
9:53 PM 35.6 °F 26.6 °F 24.8 °F 65% 29.97 in 10.0 mi ESE 13.8 mph - N/A   Overcast
10:38 PM 35.6 °F 26.2 °F 26.6 °F 70% 29.95 in 4.0 mi SE 15.0 mph 24.2 mph 0.00 in Snow Light Snow
10:51 PM 33.8 °F 23.2 °F 26.6 °F 75% 29.95 in 1.8 mi SE 17.3 mph 24.2 mph 0.00 in Snow Light Snow
10:53 PM 34.0 °F 23.4 °F 28.0 °F 79% 29.95 in 1.5 mi ESE 17.3 mph 25.3 mph 0.00 in Snow Light Snow
11:03 PM 33.8 °F 24.3 °F 28.4 °F 81% 29.96 in 0.8 mi SSE 13.8 mph 20.7 mph 0.00 in Snow Light Snow
11:14 PM 33.8 °F 27.0 °F 30.2 °F 87% 29.96 in 0.5 mi South 8.1 mph 21.9 mph 0.01 in Fog , Snow Snow
11:21 PM 33.8 °F 26.4 °F 30.2 °F 87% 29.96 in 0.2 mi SE 9.2 mph - 0.03 in Fog , Snow Heavy Snow
11:34 PM 33.8 °F 25.8 °F 30.2 °F 87% 29.94 in 0.2 mi ESE 10.4 mph - 0.08 in Fog , Snow Heavy Snow
11:53 PM 33.1 °F 23.4 °F 30.9 °F 92% 29.95 in 0.2 mi WNW 13.8 mph 24.2 mph 0.14 in Fog , Snow Heavy Snow